Flag for Finland Weather past 2 weeks in Joensuu, Finland

Now
36 °F

Overcast.


Feels Like: 30 °F
Forecast: 33 / 36 °F
Wind: 7 mph from South

Location: Joensuu Airport

Current Time: Apr 1, 2015 at 4:40:23 PM

Latest Report: Apr 1, 2015 at 3:50 PM


Visibility: N/A

Pressure: 29.42 "Hg

Humidity: 93%

Dew point: 34 °F

Location of JoensuuLocation

Historic Weather in Joensuu — Graph

°F

Joensuu temperature yesterday

Maximum temperature yesterday: 36 °F (at 1:50 PM)
Minimum temperature yesterday: 30 °F (at 5:50 AM)
Average temperature yesterday: 33 °F

Past Weeks' High & Low Weather Summary

 TemperatureHumidityPressure
High46 °F (Mar 18, 3:50 PM)100% (Mar 18, 2:50 AM)30.89 "Hg (Mar 18, 2:50 AM)
Low5 °F (Mar 26, 5:20 AM)21% (Mar 27, 1:20 PM)29.06 "Hg (Mar 24, 5:20 AM)
Average29 °F78%29.88 "Hg
* Reported Mar 17 2:20 PM — Apr 1 3:20 PM, Joensuu, Weather by CustomWeather, © 2015

Note: Actual official high and low records may vary slightly from our data, if they occured in-between our weather recording intervals... More about our weather records

Advertising

Joensuu weather history for previous 24 hours

 ConditionsComfort  
Time TempWeatherWind HumidityBarometerVisibility
3:20 PM
Wed, Apr 1
37 °FPartly sunny.7 mph87%29.39 "HgN/A
2:50 PM37 °FMostly cloudy.6 mph87%29.39 "HgN/A
2:20 PM37 °FLow clouds.6 mph93%29.39 "HgN/A
1:50 PM36 °FLow clouds.6 mph100%29.39 "HgN/A
1:20 PM36 °FPartly sunny.8 mph100%29.39 "HgN/A
12:50 PM37 °FPartly sunny.7 mph87%29.39 "HgN/A
12:20 PM37 °FPartly sunny.7 mph87%29.36 "HgN/A
11:50 AM36 °FPartly sunny.6 mph93%29.36 "HgN/A
11:20 AM36 °FBroken clouds.6 mph93%29.36 "HgN/A
10:50 AM34 °FPartly sunny.2 mph93%29.36 "HgN/A
10:20 AM34 °FPartly sunny.3 mph93%29.36 "HgN/A
9:50 AM34 °FPartly sunny.5 mph93%29.36 "HgN/A
9:20 AM34 °FPartly sunny.6 mph93%29.33 "HgN/A
8:50 AM34 °FPartly sunny.6 mph100%29.33 "HgN/A
8:20 AM34 °FSnow flurries. Partly sunny.5 mph100%29.33 "HgN/A
7:50 AM34 °FLight rain. Low clouds.6 mph100%29.33 "Hg6 mi
7:20 AM32 °FPartly cloudy.5 mph100%29.33 "HgN/A
6:50 AM34 °FPartly cloudy.7 mph100%29.30 "HgN/A
6:20 AM34 °FPartly cloudy.5 mph100%29.30 "HgN/A
5:50 AM34 °FPartly cloudy.7 mph100%29.30 "HgN/A
5:20 AM34 °FSprinkles. Overcast.6 mph100%29.27 "HgN/A
4:50 AM34 °FLow clouds.7 mph100%29.27 "HgN/A
4:20 AM34 °FPassing clouds.6 mph100%29.27 "HgN/A
3:50 AM34 °FLow clouds.7 mph100%29.27 "HgN/A
3:20 AM34 °FLow clouds.8 mph100%29.24 "HgN/A
2:50 AM34 °FSnow flurries. Low clouds.7 mph100%29.24 "HgN/A
2:20 AM32 °FLight rain. Low clouds.8 mph100%29.24 "HgN/A
1:50 AM34 °FLight rain. Low clouds.7 mph100%29.24 "HgN/A
1:20 AM34 °FSprinkles. Low clouds.6 mph100%29.21 "HgN/A
12:50 AM34 °FSprinkles. Low clouds.7 mph100%29.21 "HgN/A
12:20 AM34 °FSprinkles. Low clouds.7 mph100%29.21 "Hg3 mi
11:50 PM
Tue, Mar 31
32 °FSprinkles. Low clouds.8 mph100%29.21 "Hg4 mi
11:20 PM34 °FLight rain. Low clouds.8 mph100%29.18 "HgN/A
10:50 PM32 °FLight rain. Low clouds.9 mph100%29.18 "Hg2 mi
10:20 PM32 °FLight snow. Low clouds.9 mph100%29.18 "HgN/A
9:50 PM32 °FLow clouds.10 mph100%29.18 "HgN/A
9:20 PM32 °FLow clouds.10 mph100%29.15 "HgN/A
8:50 PM32 °FLight rain. Low clouds.9 mph100%29.15 "Hg5 mi
8:20 PM32 °FLight rain. Low clouds.14 mph100%29.15 "Hg3 mi
7:50 PM32 °FLight rain. Low clouds.13 mph100%29.15 "Hg2 mi
7:20 PM32 °FLight rain. Low clouds.14 mph100%29.15 "Hg2 mi
6:50 PM34 °FLight rain. Low clouds.13 mph100%29.12 "Hg2 mi
6:20 PM34 °FLight rain. Low clouds.15 mph100%29.12 "HgN/A
5:50 PM34 °FLow clouds.12 mph100%29.12 "HgN/A
5:20 PM34 °FLight rain. Low clouds.15 mph100%29.12 "HgN/A
4:50 PM34 °FLight rain. Low clouds.15 mph100%29.12 "Hg4 mi
4:20 PM34 °FSprinkles. Low clouds.15 mph100%29.12 "Hg2 mi
Weather by CustomWeather, © 2015

See weather overviewHow to use our weather pages